Regional Weather Roundup
Issued by NWS Boston, MA

Current Version | Previous Version | Text Only | Print | Product List | Glossary Off
Versions: 1 2 3 4 5 6 7 8 9 10 11 12 13 14 15 16 17 18 19 20 21 22 23 24 25 26 27 28 29 30 31 32 33 34 35 36 37 38 39 40 41 42 43 44 45 46 47 48 49 50
000 ASUS41 KBOX 211610 RWRBOX REGIONAL WEATHER ROUNDUP NATIONAL WEATHER SERVICE BOSTON/NORTON MA 1200 PM EDT FRI SEP 21 2018 NOTE: "FAIR" INDICATES FEW OR NO CLOUDS BELOW 12,000 FEET WITH NO SIGNIFICANT WEATHER AND/OR OBSTRUCTIONS TO VISIBILITY. MAZALL-211700- EASTERN MASSACHUSETTS CITY SKY/WX TMP DP RH WIND PRES REMARKS BOSTON FAIR 69 52 54 S10 30.22F BEVERLY FAIR 66 53 63 S12 30.22F LAWRENCE PTSUNNY 70 51 51 S8 30.23F BEDFORD FAIR 68 52 56 SE9 30.20F BLUE HILL NOT AVBL NORWOOD FAIR 71 54 54 S10 30.22F MARSHFIELD FAIR 68 55 64 SE10G17 30.23F PLYMOUTH N/A 68 52 56 SE9 30.24F TAUNTON FAIR 70 54 56 SE9 30.23F NEW BEDFORD FAIR 67 55 65 S10 30.23F $$ MAZALL-211700- CAPE COD AND THE ISLANDS CITY SKY/WX TMP DP RH WIND PRES REMARKS FALMOUTH FAIR 66 54 63 SE12 30.26F HYANNIS FAIR 65 54 67 S8 30.24F CHATHAM FAIR 65 53 65 SE9G16 30.27F PROVINCETOWN FAIR 68 55 63 S12 30.25F NANTUCKET FAIR 65 54 67 SE10 30.26F MARTHAS VNYRD FAIR 66 54 65 S9 30.25F $$ MAZALL-211700- CENTRAL AND WESTERN MASSACHUSETTS CITY SKY/WX TMP DP RH WIND PRES REMARKS WORCESTER CLOUDY 63 55 75 S13 30.22F FITCHBURG CLOUDY 65 53 65 SE14 30.22F ORANGE CLOUDY 64 56 75 S9 30.21F HAZE SPRINGFIELD CLOUDY 65 56 73 S9 30.19F WESTFIELD CLOUDY 64 60 87 S6 30.20F NORTH ADAMS CLOUDY 64 60 87 E7 30.16F PITTSFIELD CLOUDY 62 58 86 S12 30.17F FOG $$ RIZALL-211700- RHODE ISLAND CITY SKY/WX TMP DP RH WIND PRES REMARKS PROVIDENCE FAIR 67 54 63 SE13 30.25F NEWPORT FAIR 66 55 67 S12 30.25F BLOCK ISLAND FAIR 67 56 67 SE9 30.26F SMITHFIELD PTSUNNY 66 56 70 VRB7 30.24F WESTERLY FAIR 69 57 65 S9 30.26F $$ CTZALL-211700- CONNECTICUT CITY SKY/WX TMP DP RH WIND PRES REMARKS BRADLEY INTL CLOUDY 67 59 75 S10 30.20F HARTFORD CLOUDY 69 59 70 S13 30.20F BRIDGEPORT CLOUDY 70 58 65 S9 30.21F DANBURY CLOUDY 67 60 78 S7 30.22F GROTON PTSUNNY 68 58 70 SE13 30.23F NEW HAVEN CLOUDY 71 59 65 S12 30.22F CHESTER CLOUDY 70 59 68 S12 30.23F MERIDEN CLOUDY 69 58 67 S13G20 30.20F WILLIMANTIC CLOUDY 66 58 75 S9 30.23F $$ MEZ002-015-021-024-NHZ003-005-008-011-012-014-VTZ005-008-211700- NORTHERN NEW ENGLAND CITY SKY/WX TMP DP RH WIND PRES REMARKS PORTLAND ME CLOUDY 63 52 67 S13 30.23F BANGOR ME CLOUDY 61 47 59 S16G23 30.22F CONCORD NH CLOUDY 62 53 72 SE9 30.20F MANCHESTER NH CLOUDY 65 52 62 S13 30.19F NASHUA NH CLOUDY 66 56 70 VRB6 30.21F PORTSMOUTH NH PTSUNNY 66 51 58 SE15 30.20F JAFFREY NH CLOUDY 60 55 83 S7 30.21F KEENE NH CLOUDY N/A N/A N/A S9G21 30.19F BURLINGTON VT RAIN 64 59 83 S17G37 29.99F MT. WASHINGTON DRZL/FOG 41 41 100 SW25G51 N/A VSB 0 WCI 31 $$ NYZ052-076-211700- EASTERN NEW YORK CITY SKY/WX TMP DP RH WIND PRES REMARKS ALBANY CLOUDY 68 59 73 S18G37 30.10F NEW YORK CITY CLOUDY 73 60 63 S14 30.20F $$ ANZALL-211700- MARINE OBSERVATIONS STATION/POSITION TIME TEMP WIND PRES VSBY WAVE AIR SEA DIR/SP/G HT/PER (UTC) (F) (DEG/KT/KT) (MB) (MI) (FT/S) BOSTON BUOY 1550 63 65 140/ 14/ 16 1022.9F 5/11 BUZZARDS BAY 1500 62 150/ 10/ 12 1025.5F NANTUCKET SOUND 1550 63 71 140/ 10/ 12 1024.6F 1/ 7 MASS BAY-STELLWA 1504 63 65 170/ 12/ 14 1022.8F 1 7/8 5/ 8 ISLE OF SHOALS 1600 62 170/ 18/ 20 1022.9F S OF BLOCK IS 1543 68 N/A 4/12 $$ ......................KEY......................... SKY/WX - SKY CONDITION/PRESENT WEATHER TMP - TEMPERATURE IN FAHRENHEIT DWPT - DEWPOINT IN FAHRENHEIT RH - RELATIVE HUMIDITY IN PERCENT WIND - DIRECTION AND SPEED IN MPH PRES - MEAN SEA LEVEL PRESSURE IN INCHES OF HG WCI - WIND CHILL INDEX VSB - VISIBILITY IN MILES HX - HEAT INDEX TC - TEMPERATURE IN CELSIUS VRB - VARIABLE WIND DIRECTION N/A - NOT AVAILABLE

USA.gov is the U.S. government's official web portal to all federal, state and local government web resources and services.